Location: Wien
(48.2082°N, 16.3738°E)
Time: 14:59:30
(UTC+01:00)

Envisat - Pass Details

Date: 31 October 2019
Orbit: 764 x 766 km, 98.1° (Epoch: 14 November)

Event Time Altitude Azimuth Distance (km) Brightness Sun altitude
Rises 18:21:08 0° 182° (S) 3,219 6.3 -17.6°
Reaches altitude 10° 18:23:31 10° 188° (S) 2,297 5.6 -18.0°
Maximum altitude 18:28:23 46° 261° (W) 1,019 4.1 -18.9°
Drops below altitude 10° 18:33:18 10° 335° (NNW) 2,313 5.8 -19.7°
Sets 18:35:42 0° 342° (NNW) 3,244 6.5 -20.1°
